Погода в Казачинском

Россия / Красноярский край     57°41′44″N   93°16′31″E
темп.,
°C
ветер,
м/с
пор.,
м/с
влажн.,
%
обл.,
%
осадки,
мм/ч
давл.,
гПа
погр.,
м
8 марта, пн
пн801:00−9зюз4129198 0.1 1019764
04:00−11зюз3109398 0.0 1021375
07:00−13юз379693 0.1 1023192
10:00−10ю259251 0.0 1022269
13:00−6ююв488271 0.0 1019501
16:00−3юв4978100 0.0 1014626
19:00−4ююв41187100 0.0 1010558
22:00−3ююв41388100 0.0 1006607
9 марта, вт
вт901:00−1ююз41485100 0.0 10031117
04:00−2зюз61586100 0.1 10041286
07:00−7з61378100 0.3 1010867
10:00−9з61284100 0.0 1016818
13:00−7зюз61179100 0.1 10181163
16:00−6зюз51178100 0.1 10201453
19:00−9зюз41185100 0.2 1021872
22:00−11юз3119147 0.0 1022400
10 марта, ср
ср1001:00−10юз3119072 0.0 1022513
04:00−12ююз259398 0.0 1020133
07:00−10ю399099 0.0 1019403
10:00−7ююз41275100 0.0 1016770
13:00−4юз61171100 0.0 10141067
16:00−3зюз5107884 0.0 10151229
19:00−7з239192 0.1 101737
22:00−10ююз1195100 0.0 101821
11 марта, чт
чт1101:00−10вюв1296100 0.0 101622
04:00−10в2496100 0.0 1012103
07:00−7вюв3993100 0.0 1007327
10:00−3ююв51195100 0.9 1003532
13:00+2юз51496100 1.3 10021213
16:00+2зюз61590100 0.3 10031391
19:00−3зюз51480100 0.3 10071065
22:00−6зюз31288100 0.0 1012872
12 марта, пт
пт1201:00−6зюз41289100 0.0 1015883
04:00−7зюз31192100 0.1 1017856
07:00−10юз3109396 0.1 1018352
10:00−7ююз388583 0.0 1016529
13:00−3ю5108992 0.3 1011863
16:00−2зюз81491100 2.1 10091319
19:00−8зюз5147667 2.4 10101055
22:00−10зюз514810 0.0 1013755